Back to catalog

QIANFAN-67

AliveCommunicationsPO
NORAD 62797·PAYLOAD·🇨🇳 China

Launched Jan 23, 2025 from Taiyuan Satellite Launch Center

Loading…

Next Passes (next 24 hours)

TLE

FreshSource: Space-Track

Epoch: Sep 14, 2026, 13:46 UTC

1 62797U 25016N   26257.57378266  .00000034  00000-0  34100-4 0  9990
2 62797  88.9662  74.3990 0013123 268.9196  91.0452 13.51028924 84508

Track QIANFAN-67 in real time with AllMySat

Download on the App Store